SCP
0 0 0 0 0 0 0 0 0 0 0 0 0 0 0 0 0 0 0 0 0 0 0 -0 -0 -0 0 0 0 0 0 -0 0 -0 -0 -0 -0 0 0 -0 0 0 0 0 0 0 -0 0 0 0 -0 0 0 -0
0 0 0 0 0 0 0 0 0 0 0 0 0 0 0 0 0 0 0 0 0 0 -0 0 -0 0 0 0 -0 0 -0 -0 -0 -0 -0 -0 -0 -0 -0 0 0 0 0 0 -0 0 0 0 -0 0 -0 -0 0 0
0 0 0 0 0 0 0 0 0 0 0 0 0 0 0 0 0 0 0 0 0 0 -0 -0 -0 -0 0 0 0 0 0 0 0 -0 -0 -0 0 0 -0 0 0 0 0 0 0 0 0 0 0 0 0 -0 -0 0
0 0 0 0 0 0 0 0 0 0 0 0 0 0 0 0 0 0 0 0 0 0 -0 -0 -0 -0 0 0 0 0 0 0 0 -0 -0 -0 0 -0 -0 0 0 0 0 0 0 -0 -0 0 0 0 0 0 -0 -0
0 0 0 0 0 0 0 0 0 0 0 0 0 0 0 0 0 0 0 0 0 0 0 -0 0 -0 -0 0 0 0 0 0 0 -0 0 -0 0 0 -0 -0 -0 -0 0 0 0 -0 -0 -0 -0 0 -0 -0 0 0
0 0 0 0 0 0 0 0 0 0 0 0 0 0 -0 0 0 0 0 0 0 0 0 -0 0 0 -0 -0 -0 0 0 0 0 -0 0 0 0 -0 -0 0 -0 0 0 -0 0 -0 -0 -0 -0 -0 -0 -0 0 0
0 0 0 0 0 0 0 0 0 0 0 0 0 0 0 0 0 0 0 0 0 0 0 0 0 0 -0 -0 0 0 0 0 0 0 0 0 0 0 0 0 0 -0 -0 -0 -0 -0 -0 -0 -0 0 0 0 0 0
0 0 0 0 0 0 0 0 0 0 0 0 0 0 0 0 0 -0 -0 0 0 0 0 0 0 0 -0 0 0 -0 0 0 0 0 0 0 0 0 0 0 0 0 0 -0 -0 -0 -0 0 -0 -0 0 0 0 0
0 0 0 0 0 0 0 0 0 0 0 0 0 0 0 0 0 -0 0 -0 0 0 0 0 0 0 0 0 0 0 0 0 -0 0 0 0 0 0 0 0 0 0 -0 0 0 0 -0 0 -0 -0 0 0 0 0
0 0 0 0 0 0 0 0 0 0 0 0 0 0 0 0 0 0 0 0 0 0 0 0 0 0 0 0 0 -0 -0 0 -0 -0 -0 0 0 0 0 0 0 0 0 -0 -0 0 -0 0 0 0 0 0 0 0
0 0 0 0 0 0 0 0 0 0 0 0 0 0 0 0 0 0 0 0 0 0 -0 0 0 0 -0 0 0 0 0 0 -0 -0 -0 -0 0 0 0 0 0 -0 -0 0 0 0 0 0 0 0 0 0 0 0
0 0 -0 -0 0 0 0 0 0 0 0 0 0 0 0 0 0 0 0 0 0 0 0 0 0 0 0 0 -0 0 0 0 -0 0 -0 0 0 0 0 0 0 0 0 0 0 0 0 0 0 0 0 0 0 0
0 0 0 0 0 0 0 0 0 0 0 0 0 0 0 0 0 0 -0 0 0 0 0 0 0 0 0 0 0 0 0 -0 0 0 0 0 0 0 0 0 0 0 0 0 0 0 0 0 0 0 0 0 0 0
0 0 0 0 0 0 0 0 0 0 0 0 0 0 0 0 0 -0 0 0 0 0 0 0 0 0 0 0 0 0 0 0 0 0 0 0 0 0 0 0 0 0 0 0 0 0 0 0 0 0 0 0 0 0
0 0 0 0 0 0 0 0 0 0 0 0 0 0 0 0 0 0 0 0 0 0 0 0 0 0 0 0 0 0 0 0 0 0 0 0 0 0 0 0 0 0 0 0 0 0 0 0 0 0 0 0 0 0
0 0 0 0 0 0 0 0 0 0 0 0 0 0 0 0 0 0 0 0 0 0 0 0 0 0 0 0 0 0 0 0 0 0 0 0 0 0 0 0 -0 -0 -0 -0 -0 -0 0 0 0 0 0 0 0 0
0 0 0 0 -0 -0 0 0 0 0 0 0 0 0 0 0 0 0 0 0 0 0 0 0 0 0 0 0 0 0 0 0 0 0 0 0 0 0 -0 -0 -0 -0 -0 -0 -0 -0 -0 0 0 0 0 0 0 0
0 0 0 -0 0 0 0 0 0 0 0 0 0 0 0 0 0 0 0 0 0 0 0 0 0 0 0 0 0 0 0 0 0 0 0 0 0 0 0 0 0 0 0 0 0 0 0 0 0 0 0 0 0 0
0 0 -0 0 0 0 0 0 0 0 0 0 0 0 0 0 0 0 0 0 0 0 0 0 0 0 0 0 0 0 0 0 0 0 0 0 0 0 0 0 0 0 0 0 0 0 0 0 0 0 0 0 0 0
0 0 0 0 0 0 0 0 0 0 0 0 0 0 0 0 0 0 0 0 0 0 0 0 0 0 0 0 0 0 0 0 0 0 0 0 0 0 0 0 0 0 0 0 0 0 0 0 0 0 0 0 0 0
0 0 0 0 0 0 0 0 0 0 0 0 0 0 0 0 0 0 0 0 0 0 0 0 0 0 0 0 0 0 0 0 0 0 0 0 0 0 0 0 0 0 0 0 0 0 0 0 0 0 0 0 0 0
0 0 0 0 0 0 0 0 0 0 0 0 0 0 0 0 0 0 0 0 0 0 0 0 0 0 0 0 0 0 0 0 0 0 0 0 0 0 0 0 0 0 0 0 0 0 0 0 0 0 0 0 0 0
0 0 0 0 0 0 0 0 0 0 0 0 0 0 0 0 0 0 0 0 0 0 0 0 0 0 0 0 0 0 0 0 0 0 0 0 0 0 0 0 0 0 0 0 0 0 0 0 0 0 0 0 0 0
0 0 0 0 0 0 0 0 0 0 0 0 0 0 0 0 0 0 0 0 0 0 0 0 0 0 0 0 0 0 0 0 0 0 0 0 0 0 0 0 0 0 0 0 0 0 0 0 0 0 0 0 0 0
0 0 0 0 0 0 0 0 0 0 0 0 0 0 0 0 0 0 0 0 0 0 0 0 0 0 0 0 0 0 0 0 0 0 0 0 0 0 0 0 0 0 0 0 0 0 0 0 0 0 0 0 0 0
-0 0 0 0 0 0 0 0 0 0 0 0 0 0 0 0 0 0 0 0 0 0 0 0 0 0 0 0 0 0 0 0 0 0 0 0 0 0 0 0 0 0 0 0 0 0 0 0 0 0 0 0 0 0
-0 0 0 0 0 0 0 0 0 0 0 0 0 0 0 0 0 0 0 0 0 0 0 0 0 0 0 0 0 0 0 0 0 0 0 0 0 0 0 0 0 0 0 0 0 0 0 0 0 0 0 0 0 0
0 0 0 0 0 0 0 0 0 0 0 0 0 0 0 0 0 0 0 0 0 0 0 0 0 0 0 0 0 0 0 0 0 0 0 0 0 0 0 0 0 0 0 0 0 0 0 0 0 0 0 0 0 0
0 0 0 0 0 0 0 0 0 0 0 0 0 0 0 0 0 0 0 0 0 0 0 0 0 0 0 0 0 0 0 0 0 0 0 0 0 0 0 0 0 0 0 0 0 0 0 0 0 0 0 0 0 0
0 0 -0 -0 -0 -0 0 0 0 0 0 0 0 0 0 0 0 0 0 0 0 0 0 0 0 0 0 0 0 0 0 0 0 0 0 0 0 0 0 0 0 0 0 0 0 0 0 0 0 0 0 0 0 0
0 -0 -0 -0 -0 0 0 0 0 0 0 0 0 0 0 -0 -0 -0 0 0 0 0 0 0 0 0 0 0 0 0 0 0 0 0 0 0 0 0 0 0 0 0 0 0 0 0 0 0 0 0 0 0 0 0
0 0 0 0 0 0 0 0 0 0 0 0 -0 -0 -0 -0 -0 -0 -0 0 0 0 0 0 0 0 0 0 0 0 0 0 0 0 0 0 0 0 0 0 0 0 0 0 0 0 0 0 0 0 0 0 0 0
0 0 0 0 0 0 0 0 0 0 -0 -0 -0 -0 -0 0 0 0 0 0 0 0 0 0 0 0 0 0 0 0 0 0 0 0 0 0 0 0 0 0 0 0 0 0 0 0 0 0 0 0 0 0 0 0
Wind_Speed_500mb
55 49 64 56 50 42 41 46 42 40 35 40 34 29 23 25 33 36 34 26 30 13 41 42 44 37 22 12 4 19 17 9 10 6 2 4 5 8 8 9 10 6 5 4 3 4 12 11 9 6 2 27 23 32
56 55 57 58 53 50 56 52 45 42 41 41 35 29 23 26 33 34 35 30 31 38 25 25 33 37 42 43 30 7 7 15 7 4 3 3 4 5 9 7 5 7 3 6 7 6 9 24 14 27 9 20 19 27
55 55 55 51 50 47 51 47 47 44 43 38 35 32 26 26 24 35 38 28 23 34 45 52 50 31 28 32 44 23 18 17 10 10 4 2 7 3 5 7 7 6 14 4 4 3 16 32 19 25 7 20 35 23
63 62 58 53 50 54 48 47 48 42 40 38 37 35 31 29 25 25 34 28 24 11 9 22 33 36 27 26 30 40 44 24 15 6 7 4 5 9 6 13 11 8 12 14 7 10 23 6 33 33 22 15 17 2
59 62 63 59 52 48 49 55 47 44 39 35 35 34 32 30 26 30 31 27 32 23 6 25 60 50 18 44 52 45 41 42 36 12 6 7 8 5 6 5 3 15 9 6 5 22 13 13 19 21 31 28 16 13
59 57 61 69 53 46 55 57 51 45 40 36 34 37 36 35 27 27 17 40 43 38 12 7 20 52 44 37 30 34 52 41 24 12 10 10 10 7 5 5 6 27 29 27 15 45 27 18 30 31 38 32 26 29
58 56 56 51 46 51 60 54 54 46 40 40 34 30 27 35 39 44 10 2 22 42 8 10 13 10 12 7 23 27 27 24 22 12 11 10 10 5 5 7 16 29 31 30 44 42 38 44 27 31 30 24 23 20
55 54 51 52 52 55 60 51 54 50 44 36 31 32 31 37 37 41 42 7 17 42 7 5 9 13 8 8 10 16 15 23 18 12 9 7 6 13 7 6 16 25 36 25 48 33 24 22 25 28 25 27 23 22
54 58 55 51 53 56 48 46 46 42 38 30 31 33 31 35 29 40 31 23 27 18 9 7 5 7 4 5 5 8 20 7 13 7 7 10 4 5 9 12 19 30 25 35 43 32 32 32 34 34 31 28 26 20
54 54 49 51 55 57 54 48 45 41 37 40 35 23 16 18 28 25 27 37 28 15 15 9 12 7 4 8 4 4 7 2 4 7 8 5 4 20 16 11 17 25 29 32 36 42 45 37 35 33 31 26 22 15
52 56 55 52 53 49 48 45 43 44 45 43 24 16 20 51 34 16 8 9 13 8 16 16 39 12 10 3 5 5 3 1 3 3 3 4 4 6 11 14 21 27 27 20 19 17 20 22 26 27 26 23 19 14
52 55 57 53 50 50 48 47 52 60 38 43 27 40 55 15 10 8 9 6 10 10 14 10 15 23 11 11 4 3 2 3 5 1 4 3 6 9 11 16 22 26 27 27 25 24 24 22 21 20 21 19 17 13
54 56 57 57 55 52 51 58 66 61 42 54 25 19 16 11 9 16 15 9 10 11 20 16 7 13 13 10 4 3 5 7 1 0 2 4 8 10 14 19 22 24 27 29 27 24 24 23 21 21 19 17 15 12
55 56 57 57 59 63 63 72 59 60 51 15 17 15 10 10 11 9 8 10 15 12 32 33 10 10 8 5 3 4 6 2 4 4 4 2 7 13 16 19 22 25 29 29 29 28 27 25 23 22 20 18 15 12
63 63 64 64 63 64 63 59 68 76 20 10 14 11 11 7 3 10 17 18 7 11 35 14 8 5 3 4 3 2 3 5 3 4 3 3 6 12 13 16 19 22 25 27 26 25 27 29 28 25 21 17 13 10
39 36 36 50 63 70 68 100 78 22 8 6 8 5 12 10 4 8 15 13 9 24 21 4 4 5 3 6 5 8 3 7 4 2 6 4 8 11 14 17 18 21 24 24 25 27 29 28 25 25 23 15 12 9
48 25 60 63 72 84 82 72 27 12 11 7 6 16 17 20 12 8 9 8 12 17 5 6 7 9 4 4 2 5 6 3 2 8 5 7 9 11 15 17 20 23 25 24 23 26 31 31 26 20 14 11 9 7
43 54 65 88 104 93 65 20 12 11 11 14 8 8 20 17 15 12 8 5 6 7 7 5 6 4 2 5 3 3 8 4 7 10 12 10 7 10 15 17 20 23 23 23 24 26 29 26 19 17 14 12 7 5
64 72 78 78 79 51 11 10 9 11 10 13 18 19 21 22 26 17 14 16 17 20 22 10 10 4 3 3 4 6 9 12 15 17 14 10 8 13 16 19 19 19 19 20 22 23 23 21 16 15 13 9 6 3
95 98 86 63 49 15 12 10 10 13 8 8 14 14 13 13 12 25 24 20 19 12 15 8 3 2 6 8 6 7 8 12 15 13 11 13 13 16 18 19 19 20 19 18 17 18 17 18 17 14 12 7 4 3
93 70 53 44 35 26 14 9 12 11 14 15 18 10 11 14 13 16 19 18 17 11 8 10 10 12 7 7 7 5 5 7 8 11 15 19 18 14 16 17 19 18 18 18 17 17 17 16 13 10 7 5 3 5
44 58 46 23 15 11 13 12 19 16 10 17 11 10 11 7 9 11 11 23 11 11 7 7 9 6 5 6 8 7 7 9 10 10 11 13 11 12 15 16 15 13 13 14 15 15 15 11 8 6 7 8 8 9
47 42 17 11 10 10 10 10 8 7 7 8 9 7 6 6 6 8 11 10 8 13 6 13 13 6 6 4 5 6 7 9 11 12 12 13 13 14 15 14 13 11 11 9 10 10 9 8 7 7 9 11 13 18
21 13 10 9 10 7 11 6 8 10 10 6 6 6 3 7 8 10 5 6 9 9 12 16 6 4 4 6 8 9 11 14 15 12 13 15 18 21 22 24 24 21 18 14 11 9 9 9 10 10 12 14 17 20
10 14 9 9 9 8 8 6 5 7 5 3 6 4 3 7 5 5 4 4 9 11 15 11 6 3 2 4 6 9 9 8 11 13 16 18 17 16 18 21 25 28 27 22 17 13 12 12 13 14 14 14 15 17
13 16 8 3 6 7 3 6 4 6 6 5 5 7 6 5 6 5 4 5 7 8 7 7 11 13 15 11 6 5 6 9 10 8 11 12 11 12 14 15 17 16 19 21 19 15 13 13 11 10 10 10 10 9
8 5 10 11 8 13 11 14 11 9 7 5 3 5 6 7 3 2 10 7 8 7 5 4 3 6 10 13 15 17 14 10 9 10 11 10 10 11 11 12 13 13 11 9 9 10 10 9 7 7 7 8 10 9
9 9 7 11 16 16 7 6 6 4 3 5 8 7 8 9 5 6 8 11 8 12 12 11 7 5 4 4 4 9 12 15 14 12 11 11 11 9 9 10 11 12 11 8 3 1 2 4 4 5 7 7 7 9
11 9 12 11 13 15 15 5 3 5 3 4 7 4 6 8 16 21 20 15 7 2 5 6 10 9 7 5 1 5 5 6 9 8 8 9 8 11 17 15 10 9 9 11 8 4 1 1 4 5 5 6 6 5
8 9 12 11 9 8 13 9 8 11 14 18 18 31 38 32 26 18 12 6 3 5 5 3 4 5 6 5 4 5 3 4 7 7 7 9 10 12 15 15 14 9 7 6 6 5 5 3 3 2 1 1 2 3
10 9 13 13 11 24 38 43 37 34 34 36 47 42 26 18 16 13 10 8 7 5 4 2 4 3 3 3 3 3 3 5 6 7 8 9 10 11 11 11 11 10 9 8 7 7 6 4 2 1 1 2 3 4
9 10 15 9 9 29 11 10 14 18 14 10 10 9 10 8 8 13 9 8 9 7 5 4 5 5 5 5 5 6 6 7 8 10 11 11 12 11 11 11 10 8 4 5 7 5 5 4 2 2 4 5 6 6
34 41 33 20 13 14 10 11 8 8 7 6 5 4 4 5 7 12 13 8 8 10 9 7 7 6 6 8 9 9 8 8 9 9 9 10 9 9 8 8 9 7 7 6 3 3 4 4 4 6 6 6 7 8
Wind_Direction_500mb
234 232 223 220 222 234 215 217 221 236 224 211 214 218 224 218 216 224 231 218 218 236 264 266 272 275 271 267 239 306 343 354 335 32 8 343 302 317 303 281 276 324 276 220 102 138 269 7 344 174 27 306 297 296
228 223 220 223 235 232 229 230 238 226 214 213 215 216 220 217 219 230 225 223 233 239 257 274 275 265 266 277 264 265 261 310 278 33 343 311 303 282 326 299 40 303 274 294 217 229 332 329 312 311 312 305 316 329
225 224 223 231 236 240 229 224 219 213 206 215 219 216 217 228 229 229 225 223 232 247 270 271 277 302 277 260 253 245 263 239 244 264 319 347 281 266 294 275 288 290 296 254 272 12 306 306 334 355 356 286 307 320
226 225 226 228 227 231 218 212 200 206 217 217 215 214 220 225 234 237 221 225 228 264 269 280 285 280 287 261 251 245 244 232 271 297 325 244 244 213 268 283 292 262 306 308 281 275 307 332 340 337 345 271 262 357
223 222 219 221 215 218 216 207 212 207 207 214 217 220 220 218 220 229 234 236 239 229 279 293 296 303 272 252 253 249 240 241 250 259 237 261 237 272 249 276 273 339 329 323 298 299 310 306 16 45 64 70 76 55
221 221 221 216 214 219 211 208 211 207 214 215 225 230 230 221 215 224 240 238 229 230 263 296 290 287 290 266 253 242 241 246 217 207 228 244 246 261 267 286 40 7 355 9 330 335 30 44 50 59 50 35 46 52
219 217 221 218 218 216 209 208 205 210 213 216 222 219 218 209 211 205 192 199 218 207 257 293 292 273 290 265 216 229 225 209 205 212 226 241 239 200 257 261 357 349 350 358 13 19 6 19 6 23 34 40 37 41
215 212 210 211 211 205 207 210 211 212 220 227 223 204 206 207 219 231 223 204 182 187 204 254 268 302 206 189 181 193 195 200 213 212 215 215 224 209 233 46 350 347 355 347 2 1 356 352 23 32 18 10 14 24
212 208 211 209 203 206 208 205 204 212 213 208 193 205 211 213 213 226 231 208 179 189 198 222 244 258 215 181 181 226 207 188 200 200 213 192 181 227 60 36 9 12 5 334 342 341 351 8 11 14 19 25 16 18
208 205 206 207 200 202 209 207 207 209 193 189 195 182 203 186 203 202 152 166 193 214 224 224 222 264 254 166 319 292 247 202 199 214 189 214 82 87 63 38 12 359 350 350 353 352 351 354 357 360 4 8 6 3
209 210 205 210 213 207 210 213 211 191 194 201 185 177 160 151 160 183 133 178 200 206 214 226 213 223 254 154 206 240 286 102 236 223 238 209 123 81 29 19 350 351 356 354 341 327 334 337 337 342 342 346 346 342
208 207 211 216 218 216 218 211 197 192 203 191 156 141 142 145 158 164 178 189 206 233 197 199 214 204 225 226 142 219 274 5 263 77 236 189 92 53 16 8 350 353 356 356 352 348 346 346 345 340 331 335 339 345
212 215 220 224 225 221 211 201 198 204 191 143 143 169 170 168 178 182 186 197 197 207 187 173 178 166 199 206 115 167 217 233 17 61 306 66 97 29 6 359 360 356 356 356 356 354 352 352 350 347 344 341 339 338
225 225 223 221 219 217 215 206 207 180 160 154 160 161 181 190 217 189 184 166 200 190 174 164 132 185 166 108 146 156 240 264 236 224 204 73 31 7 360 356 357 358 357 358 358 357 356 356 356 353 348 347 348 344
229 228 226 224 221 214 207 187 179 162 171 139 154 185 194 181 115 148 143 125 128 175 167 145 107 159 59 110 199 141 209 255 234 220 191 87 359 360 1 2 1 3 7 9 9 6 2 1 359 359 1 2 1 4
200 189 203 187 180 176 165 153 161 134 81 85 70 88 129 109 88 89 126 125 156 165 158 149 115 79 182 152 159 209 175 233 246 154 105 38 8 7 12 7 7 9 8 6 12 14 10 1 359 360 360 358 9 20
160 149 152 142 157 153 144 152 136 68 75 73 54 81 88 84 93 97 113 131 162 162 171 142 108 199 138 115 141 27 165 244 48 83 43 5 352 355 3 2 357 355 353 355 358 360 357 355 354 348 349 15 26 46
173 156 154 162 156 152 145 131 84 81 75 57 83 56 80 92 100 81 70 106 145 139 117 108 121 93 143 177 250 273 35 50 59 4 332 305 304 331 347 350 348 349 349 347 343 344 350 353 1 7 12 17 25 78
151 154 162 159 153 132 91 66 61 91 82 91 92 80 85 82 74 81 88 88 108 117 112 56 72 93 182 114 134 69 39 17 347 344 350 343 315 330 342 344 341 342 344 342 340 344 350 356 1 4 1 2 355 103
142 144 140 139 148 100 87 73 82 89 97 108 106 88 77 77 80 63 73 87 92 59 53 46 114 125 108 101 49 356 337 326 324 335 357 354 318 315 326 333 334 335 333 337 339 341 342 341 343 348 350 353 4 146
140 127 129 142 75 62 81 96 73 89 106 94 109 84 79 69 45 40 38 36 62 41 61 71 100 112 72 12 6 12 25 28 10 343 333 332 331 307 318 330 332 329 322 326 329 332 332 332 336 343 5 24 78 131
118 143 128 82 75 83 79 61 109 107 82 119 93 78 69 52 38 32 47 49 62 39 63 89 129 132 37 76 65 43 16 340 338 341 345 345 333 327 336 342 338 336 335 333 330 337 340 349 8 40 63 89 100 113
130 132 79 66 82 70 123 128 89 95 95 123 101 73 43 73 70 48 72 60 71 25 70 116 128 88 73 83 24 10 13 14 7 3 7 12 3 358 353 355 1 359 351 354 8 6 359 17 53 73 91 101 113 120
95 69 53 59 65 110 138 88 89 94 108 76 80 92 78 117 100 65 75 69 53 63 120 140 132 88 46 32 50 47 47 42 32 40 54 53 50 48 47 48 48 48 45 41 44 44 46 61 70 82 95 108 119 123
89 21 40 24 46 77 63 40 37 65 88 94 96 118 124 116 74 69 100 110 79 89 77 73 60 20 63 105 66 51 54 66 55 49 59 54 44 41 50 53 54 54 46 36 38 45 61 70 80 89 96 101 114 124
76 25 50 47 16 89 95 92 98 129 108 84 75 92 81 78 73 74 81 131 125 113 117 76 48 47 67 73 76 78 85 69 52 29 53 47 44 41 39 31 33 37 41 39 42 51 60 66 73 82 94 108 119 129
81 25 53 47 92 93 83 72 66 71 75 93 95 72 80 76 115 119 130 119 115 119 122 121 102 67 63 68 70 70 66 65 56 57 50 39 41 41 36 33 32 24 14 15 33 41 50 54 63 82 99 122 130 129
81 51 92 24 68 48 95 65 57 77 87 74 80 55 113 150 168 132 142 146 109 81 72 69 75 93 83 66 88 73 63 56 51 41 41 40 39 27 24 20 16 17 20 14 336 318 73 63 82 107 113 114 121 133
65 86 91 48 63 55 42 55 94 72 73 83 107 115 111 95 117 126 133 148 142 85 13 27 41 60 75 57 17 241 245 332 7 16 19 35 24 30 35 27 18 9 20 32 36 46 36 168 170 162 158 146 146 159
74 56 95 63 59 40 16 36 80 103 104 106 102 113 105 103 109 121 128 147 203 252 262 286 348 37 35 29 10 29 30 358 346 356 359 10 16 15 19 21 28 24 21 35 48 52 50 66 87 84 28 218 230 256
94 94 79 66 75 102 100 90 90 94 100 107 122 115 116 123 132 124 132 139 140 131 121 57 10 5 349 333 351 326 321 344 345 349 348 349 346 347 344 340 342 350 359 8 19 9 351 323 274 255 277 274 266 246
49 79 118 107 140 161 93 79 81 93 89 84 82 104 119 131 145 175 166 128 101 89 118 112 79 59 49 43 33 19 3 341 323 320 317 320 321 327 331 331 330 328 323 303 308 331 3 22 22 333 298 284 286 272
90 98 107 102 127 172 155 135 100 106 102 97 98 115 121 145 152 175 172 151 125 125 129 114 99 85 66 56 51 38 27 16 7 359 359 357 354 347 342 345 352 353 356 3 343 288 285 298 308 313 301 297 297 291
Wind_Speed_850mb
55 49 64 56 50 42 41 46 42 40 35 40 34 29 23 25 33 36 34 26 30 13 41 42 44 37 22 12 4 19 17 9 10 6 2 4 5 8 8 9 10 6 5 4 3 4 12 11 9 6 2 27 23 32
56 55 57 58 53 50 56 52 45 42 41 41 35 29 23 26 33 34 35 30 31 38 25 25 33 37 42 43 30 7 7 15 7 4 3 3 4 5 9 7 5 7 3 6 7 6 9 24 14 27 9 20 19 27
55 55 55 51 50 47 51 47 47 44 43 38 35 32 26 26 24 35 38 28 23 34 45 52 50 31 28 32 44 23 18 17 10 10 4 2 7 3 5 7 7 6 14 4 4 3 16 32 19 25 7 20 35 23
63 62 58 53 50 54 48 47 48 42 40 38 37 35 31 29 25 25 34 28 24 11 9 22 33 36 27 26 30 40 44 24 15 6 7 4 5 9 6 13 11 8 12 14 7 10 23 6 33 33 22 15 17 2
59 62 63 59 52 48 49 55 47 44 39 35 35 34 32 30 26 30 31 27 32 23 6 25 60 50 18 44 52 45 41 42 36 12 6 7 8 5 6 5 3 15 9 6 5 22 13 13 19 21 31 28 16 13
59 57 61 69 53 46 55 57 51 45 40 36 34 37 36 35 27 27 17 40 43 38 12 7 20 52 44 37 30 34 52 41 24 12 10 10 10 7 5 5 6 27 29 27 15 45 27 18 30 31 38 32 26 29
58 56 56 51 46 51 60 54 54 46 40 40 34 30 27 35 39 44 10 2 22 42 8 10 13 10 12 7 23 27 27 24 22 12 11 10 10 5 5 7 16 29 31 30 44 42 38 44 27 31 30 24 23 20
55 54 51 52 52 55 60 51 54 50 44 36 31 32 31 37 37 41 42 7 17 42 7 5 9 13 8 8 10 16 15 23 18 12 9 7 6 13 7 6 16 25 36 25 48 33 24 22 25 28 25 27 23 22
54 58 55 51 53 56 48 46 46 42 38 30 31 33 31 35 29 40 31 23 27 18 9 7 5 7 4 5 5 8 20 7 13 7 7 10 4 5 9 12 19 30 25 35 43 32 32 32 34 34 31 28 26 20
54 54 49 51 55 57 54 48 45 41 37 40 35 23 16 18 28 25 27 37 28 15 15 9 12 7 4 8 4 4 7 2 4 7 8 5 4 20 16 11 17 25 29 32 36 42 45 37 35 33 31 26 22 15
52 56 55 52 53 49 48 45 43 44 45 43 24 16 20 51 34 16 8 9 13 8 16 16 39 12 10 3 5 5 3 1 3 3 3 4 4 6 11 14 21 27 27 20 19 17 20 22 26 27 26 23 19 14
52 55 57 53 50 50 48 47 52 60 38 43 27 40 55 15 10 8 9 6 10 10 14 10 15 23 11 11 4 3 2 3 5 1 4 3 6 9 11 16 22 26 27 27 25 24 24 22 21 20 21 19 17 13
54 56 57 57 55 52 51 58 66 61 42 54 25 19 16 11 9 16 15 9 10 11 20 16 7 13 13 10 4 3 5 7 1 0 2 4 8 10 14 19 22 24 27 29 27 24 24 23 21 21 19 17 15 12
55 56 57 57 59 63 63 72 59 60 51 15 17 15 10 10 11 9 8 10 15 12 32 33 10 10 8 5 3 4 6 2 4 4 4 2 7 13 16 19 22 25 29 29 29 28 27 25 23 22 20 18 15 12
63 63 64 64 63 64 63 59 68 76 20 10 14 11 11 7 3 10 17 18 7 11 35 14 8 5 3 4 3 2 3 5 3 4 3 3 6 12 13 16 19 22 25 27 26 25 27 29 28 25 21 17 13 10
39 36 36 50 63 70 68 100 78 22 8 6 8 5 12 10 4 8 15 13 9 24 21 4 4 5 3 6 5 8 3 7 4 2 6 4 8 11 14 17 18 21 24 24 25 27 29 28 25 25 23 15 12 9
48 25 60 63 72 84 82 72 27 12 11 7 6 16 17 20 12 8 9 8 12 17 5 6 7 9 4 4 2 5 6 3 2 8 5 7 9 11 15 17 20 23 25 24 23 26 31 31 26 20 14 11 9 7
43 54 65 88 104 93 65 20 12 11 11 14 8 8 20 17 15 12 8 5 6 7 7 5 6 4 2 5 3 3 8 4 7 10 12 10 7 10 15 17 20 23 23 23 24 26 29 26 19 17 14 12 7 5
64 72 78 78 79 51 11 10 9 11 10 13 18 19 21 22 26 17 14 16 17 20 22 10 10 4 3 3 4 6 9 12 15 17 14 10 8 13 16 19 19 19 19 20 22 23 23 21 16 15 13 9 6 3
95 98 86 63 49 15 12 10 10 13 8 8 14 14 13 13 12 25 24 20 19 12 15 8 3 2 6 8 6 7 8 12 15 13 11 13 13 16 18 19 19 20 19 18 17 18 17 18 17 14 12 7 4 3
93 70 53 44 35 26 14 9 12 11 14 15 18 10 11 14 13 16 19 18 17 11 8 10 10 12 7 7 7 5 5 7 8 11 15 19 18 14 16 17 19 18 18 18 17 17 17 16 13 10 7 5 3 5
44 58 46 23 15 11 13 12 19 16 10 17 11 10 11 7 9 11 11 23 11 11 7 7 9 6 5 6 8 7 7 9 10 10 11 13 11 12 15 16 15 13 13 14 15 15 15 11 8 6 7 8 8 9
47 42 17 11 10 10 10 10 8 7 7 8 9 7 6 6 6 8 11 10 8 13 6 13 13 6 6 4 5 6 7 9 11 12 12 13 13 14 15 14 13 11 11 9 10 10 9 8 7 7 9 11 13 18
21 13 10 9 10 7 11 6 8 10 10 6 6 6 3 7 8 10 5 6 9 9 12 16 6 4 4 6 8 9 11 14 15 12 13 15 18 21 22 24 24 21 18 14 11 9 9 9 10 10 12 14 17 20
10 14 9 9 9 8 8 6 5 7 5 3 6 4 3 7 5 5 4 4 9 11 15 11 6 3 2 4 6 9 9 8 11 13 16 18 17 16 18 21 25 28 27 22 17 13 12 12 13 14 14 14 15 17
13 16 8 3 6 7 3 6 4 6 6 5 5 7 6 5 6 5 4 5 7 8 7 7 11 13 15 11 6 5 6 9 10 8 11 12 11 12 14 15 17 16 19 21 19 15 13 13 11 10 10 10 10 9
8 5 10 11 8 13 11 14 11 9 7 5 3 5 6 7 3 2 10 7 8 7 5 4 3 6 10 13 15 17 14 10 9 10 11 10 10 11 11 12 13 13 11 9 9 10 10 9 7 7 7 8 10 9
9 9 7 11 16 16 7 6 6 4 3 5 8 7 8 9 5 6 8 11 8 12 12 11 7 5 4 4 4 9 12 15 14 12 11 11 11 9 9 10 11 12 11 8 3 1 2 4 4 5 7 7 7 9
11 9 12 11 13 15 15 5 3 5 3 4 7 4 6 8 16 21 20 15 7 2 5 6 10 9 7 5 1 5 5 6 9 8 8 9 8 11 17 15 10 9 9 11 8 4 1 1 4 5 5 6 6 5
8 9 12 11 9 8 13 9 8 11 14 18 18 31 38 32 26 18 12 6 3 5 5 3 4 5 6 5 4 5 3 4 7 7 7 9 10 12 15 15 14 9 7 6 6 5 5 3 3 2 1 1 2 3
10 9 13 13 11 24 38 43 37 34 34 36 47 42 26 18 16 13 10 8 7 5 4 2 4 3 3 3 3 3 3 5 6 7 8 9 10 11 11 11 11 10 9 8 7 7 6 4 2 1 1 2 3 4
9 10 15 9 9 29 11 10 14 18 14 10 10 9 10 8 8 13 9 8 9 7 5 4 5 5 5 5 5 6 6 7 8 10 11 11 12 11 11 11 10 8 4 5 7 5 5 4 2 2 4 5 6 6
34 41 33 20 13 14 10 11 8 8 7 6 5 4 4 5 7 12 13 8 8 10 9 7 7 6 6 8 9 9 8 8 9 9 9 10 9 9 8 8 9 7 7 6 3 3 4 4 4 6 6 6 7 8
Wind_Direction_850mb
234 232 223 220 222 234 215 217 221 236 224 211 214 218 224 218 216 224 231 218 218 236 264 266 272 275 271 267 239 306 343 354 335 32 8 343 302 317 303 281 276 324 276 220 102 138 269 7 344 174 27 306 297 296
228 223 220 223 235 232 229 230 238 226 214 213 215 216 220 217 219 230 225 223 233 239 257 274 275 265 266 277 264 265 261 310 278 33 343 311 303 282 326 299 40 303 274 294 217 229 332 329 312 311 312 305 316 329
225 224 223 231 236 240 229 224 219 213 206 215 219 216 217 228 229 229 225 223 232 247 270 271 277 302 277 260 253 245 263 239 244 264 319 347 281 266 294 275 288 290 296 254 272 12 306 306 334 355 356 286 307 320
226 225 226 228 227 231 218 212 200 206 217 217 215 214 220 225 234 237 221 225 228 264 269 280 285 280 287 261 251 245 244 232 271 297 325 244 244 213 268 283 292 262 306 308 281 275 307 332 340 337 345 271 262 357
223 222 219 221 215 218 216 207 212 207 207 214 217 220 220 218 220 229 234 236 239 229 279 293 296 303 272 252 253 249 240 241 250 259 237 261 237 272 249 276 273 339 329 323 298 299 310 306 16 45 64 70 76 55
221 221 221 216 214 219 211 208 211 207 214 215 225 230 230 221 215 224 240 238 229 230 263 296 290 287 290 266 253 242 241 246 217 207 228 244 246 261 267 286 40 7 355 9 330 335 30 44 50 59 50 35 46 52
219 217 221 218 218 216 209 208 205 210 213 216 222 219 218 209 211 205 192 199 218 207 257 293 292 273 290 265 216 229 225 209 205 212 226 241 239 200 257 261 357 349 350 358 13 19 6 19 6 23 34 40 37 41
215 212 210 211 211 205 207 210 211 212 220 227 223 204 206 207 219 231 223 204 182 187 204 254 268 302 206 189 181 193 195 200 213 212 215 215 224 209 233 46 350 347 355 347 2 1 356 352 23 32 18 10 14 24
212 208 211 209 203 206 208 205 204 212 213 208 193 205 211 213 213 226 231 208 179 189 198 222 244 258 215 181 181 226 207 188 200 200 213 192 181 227 60 36 9 12 5 334 342 341 351 8 11 14 19 25 16 18
208 205 206 207 200 202 209 207 207 209 193 189 195 182 203 186 203 202 152 166 193 214 224 224 222 264 254 166 319 292 247 202 199 214 189 214 82 87 63 38 12 359 350 350 353 352 351 354 357 360 4 8 6 3
209 210 205 210 213 207 210 213 211 191 194 201 185 177 160 151 160 183 133 178 200 206 214 226 213 223 254 154 206 240 286 102 236 223 238 209 123 81 29 19 350 351 356 354 341 327 334 337 337 342 342 346 346 342
208 207 211 216 218 216 218 211 197 192 203 191 156 141 142 145 158 164 178 189 206 233 197 199 214 204 225 226 142 219 274 5 263 77 236 189 92 53 16 8 350 353 356 356 352 348 346 346 345 340 331 335 339 345
212 215 220 224 225 221 211 201 198 204 191 143 143 169 170 168 178 182 186 197 197 207 187 173 178 166 199 206 115 167 217 233 17 61 306 66 97 29 6 359 360 356 356 356 356 354 352 352 350 347 344 341 339 338
225 225 223 221 219 217 215 206 207 180 160 154 160 161 181 190 217 189 184 166 200 190 174 164 132 185 166 108 146 156 240 264 236 224 204 73 31 7 360 356 357 358 357 358 358 357 356 356 356 353 348 347 348 344
229 228 226 224 221 214 207 187 179 162 171 139 154 185 194 181 115 148 143 125 128 175 167 145 107 159 59 110 199 141 209 255 234 220 191 87 359 360 1 2 1 3 7 9 9 6 2 1 359 359 1 2 1 4
200 189 203 187 180 176 165 153 161 134 81 85 70 88 129 109 88 89 126 125 156 165 158 149 115 79 182 152 159 209 175 233 246 154 105 38 8 7 12 7 7 9 8 6 12 14 10 1 359 360 360 358 9 20
160 149 152 142 157 153 144 152 136 68 75 73 54 81 88 84 93 97 113 131 162 162 171 142 108 199 138 115 141 27 165 244 48 83 43 5 352 355 3 2 357 355 353 355 358 360 357 355 354 348 349 15 26 46
173 156 154 162 156 152 145 131 84 81 75 57 83 56 80 92 100 81 70 106 145 139 117 108 121 93 143 177 250 273 35 50 59 4 332 305 304 331 347 350 348 349 349 347 343 344 350 353 1 7 12 17 25 78
151 154 162 159 153 132 91 66 61 91 82 91 92 80 85 82 74 81 88 88 108 117 112 56 72 93 182 114 134 69 39 17 347 344 350 343 315 330 342 344 341 342 344 342 340 344 350 356 1 4 1 2 355 103
142 144 140 139 148 100 87 73 82 89 97 108 106 88 77 77 80 63 73 87 92 59 53 46 114 125 108 101 49 356 337 326 324 335 357 354 318 315 326 333 334 335 333 337 339 341 342 341 343 348 350 353 4 146
140 127 129 142 75 62 81 96 73 89 106 94 109 84 79 69 45 40 38 36 62 41 61 71 100 112 72 12 6 12 25 28 10 343 333 332 331 307 318 330 332 329 322 326 329 332 332 332 336 343 5 24 78 131
118 143 128 82 75 83 79 61 109 107 82 119 93 78 69 52 38 32 47 49 62 39 63 89 129 132 37 76 65 43 16 340 338 341 345 345 333 327 336 342 338 336 335 333 330 337 340 349 8 40 63 89 100 113
130 132 79 66 82 70 123 128 89 95 95 123 101 73 43 73 70 48 72 60 71 25 70 116 128 88 73 83 24 10 13 14 7 3 7 12 3 358 353 355 1 359 351 354 8 6 359 17 53 73 91 101 113 120
95 69 53 59 65 110 138 88 89 94 108 76 80 92 78 117 100 65 75 69 53 63 120 140 132 88 46 32 50 47 47 42 32 40 54 53 50 48 47 48 48 48 45 41 44 44 46 61 70 82 95 108 119 123
89 21 40 24 46 77 63 40 37 65 88 94 96 118 124 116 74 69 100 110 79 89 77 73 60 20 63 105 66 51 54 66 55 49 59 54 44 41 50 53 54 54 46 36 38 45 61 70 80 89 96 101 114 124
76 25 50 47 16 89 95 92 98 129 108 84 75 92 81 78 73 74 81 131 125 113 117 76 48 47 67 73 76 78 85 69 52 29 53 47 44 41 39 31 33 37 41 39 42 51 60 66 73 82 94 108 119 129
81 25 53 47 92 93 83 72 66 71 75 93 95 72 80 76 115 119 130 119 115 119 122 121 102 67 63 68 70 70 66 65 56 57 50 39 41 41 36 33 32 24 14 15 33 41 50 54 63 82 99 122 130 129
81 51 92 24 68 48 95 65 57 77 87 74 80 55 113 150 168 132 142 146 109 81 72 69 75 93 83 66 88 73 63 56 51 41 41 40 39 27 24 20 16 17 20 14 336 318 73 63 82 107 113 114 121 133
65 86 91 48 63 55 42 55 94 72 73 83 107 115 111 95 117 126 133 148 142 85 13 27 41 60 75 57 17 241 245 332 7 16 19 35 24 30 35 27 18 9 20 32 36 46 36 168 170 162 158 146 146 159
74 56 95 63 59 40 16 36 80 103 104 106 102 113 105 103 109 121 128 147 203 252 262 286 348 37 35 29 10 29 30 358 346 356 359 10 16 15 19 21 28 24 21 35 48 52 50 66 87 84 28 218 230 256
94 94 79 66 75 102 100 90 90 94 100 107 122 115 116 123 132 124 132 139 140 131 121 57 10 5 349 333 351 326 321 344 345 349 348 349 346 347 344 340 342 350 359 8 19 9 351 323 274 255 277 274 266 246
49 79 118 107 140 161 93 79 81 93 89 84 82 104 119 131 145 175 166 128 101 89 118 112 79 59 49 43 33 19 3 341 323 320 317 320 321 327 331 331 330 328 323 303 308 331 3 22 22 333 298 284 286 272
90 98 107 102 127 172 155 135 100 106 102 97 98 115 121 145 152 175 172 151 125 125 129 114 99 85 66 56 51 38 27 16 7 359 359 357 354 347 342 345 352 353 356 3 343 288 285 298 308 313 301 297 297 291